Weather in Yoriq

Uzbekistan     41°00′47″N   69°15′53″E
temp.,
°C
wind,
m/s
gust,
m/s
humid.,
%
clouds,
%
prec.,
mm/h
press.,
hPa
HPBL,
m
7 may, fri
fri723:00+18ese227426 1.3 101515
02:00+18ene227239 0.0 101417
05:00+17e2273100 0.0 101513
08:00+21se125962 0.0 1015154
11:00+26sw01405 0.0 10151327
14:00+29nnw22335 0.0 10142125
17:00+29n433461 0.0 10131978
20:00+23ne334943 0.0 101433
8 may, sat
sat823:00+21ene335476 0.0 101441
02:00+20ene34545 0.0 101339
05:00+20ne33529 0.0 101421
08:00+24ne2242100 0.0 1014211
11:00+29n332967 0.0 10141616
14:00+31n33245 0.0 10122282
17:00+31n54255 0.0 10112356
20:00+24ne454235 0.0 101278
9 may, sun
sun923:00+22e335349 0.0 101127
02:00+21e33508 0.0 101029
05:00+20ese335014 0.0 101133
08:00+24wnw2345100 0.0 1013390
11:00+26sw2237100 0.0 10141358
14:00+29se113191 0.0 10121698
17:00+27nnw773967 0.0 1011777
20:00+23n475174 0.0 1013165
10 may, mon
mon1023:00+21nne225772 0.0 101221
02:00+19nne356798 0.0 1010101
05:00+18n3368100 0.0 101055
08:00+22nnw1254100 0.0 1012401
11:00+27nnw4434100 0.0 10111272
14:00+26nnw5526100 0.0 10111279
17:00+25nnw4524100 0.0 1011991
20:00+21n223173 0.0 101318
11 may, tue
tue1123:00+19n2338100 0.0 101227
02:00+16nne33470 0.0 101441
05:00+15nne33510 0.0 101437
08:00+21nne34370 0.0 1015364
11:00+25nnw44230 0.0 10151841
14:00+27nw55210 0.0 10142141
17:00+26nnw55240 0.0 10132271
20:00+20nne33400 0.0 101429